Flag Weather past 2 weeks in Denver, Colorado, U.S.A.

Now
45 °F

Partly cloudy.


Feels Like: 37 °F
Forecast: 28 / 51 °F
Wind: 18 mph from Northwest

Location: Buckley Air Force Base

Current Time: Nov 25, 2014 at 8:20:13 PM

Latest Report: Nov 25, 2014 at 7:58 PM


Visibility: 10 mi

Pressure: 29.91 "Hg

Humidity: 38%

Dew point: 20 °F

Location of DenverLocation

Historic Weather in Denver — Graph

°F

Denver temperature yesterday

Maximum temperature yesterday: 40 °F (at 11:58 AM)
Minimum temperature yesterday: 21 °F (at 11:58 PM)
Average temperature yesterday: 30 °F

Past Weeks' High & Low Weather Summary

 TemperatureHumidityPressure
High60 °F (Nov 22, 12:58 PM)93% (Nov 15, 6:58 AM)30.74 "Hg (Nov 15, 6:58 AM)
Low-8 °F (Nov 13, 2:58 AM)15% (Nov 22, 11:58 AM)29.44 "Hg (Nov 22, 11:58 PM)
Average24 °F58%30.12 "Hg
* Reported Nov 10 6:58 PM — Nov 25 6:58 PM, Denver, Weather by CustomWeather, © 2014

Note: Actual official high and low records may vary slightly from our data, if they occured in-between our weather recording intervals... More about our weather records

Advertising

Denver weather history for previous 24 hours

 ConditionsComfort  
Time TempWeatherWind HumidityBarometerVisibility
6:58 PM
Nov 25
44 °FPartly cloudy.22 mph38%29.91 "Hg10 mi
5:58 PM44 °FPartly cloudy.25 mph40%29.91 "Hg10 mi
4:58 PM43 °FPartly cloudy.18 mph40%29.93 "Hg10 mi
3:58 PM43 °FBroken clouds.16 mph35%29.92 "Hg10 mi
2:58 PM44 °FBroken clouds.25 mph33%29.89 "Hg10 mi
1:58 PM45 °FBroken clouds.22 mph30%29.88 "Hg10 mi
12:58 PM46 °FBroken clouds.29 mph29%29.90 "Hg10 mi
11:58 AM43 °FBroken clouds.23 mph29%29.94 "Hg10 mi
10:58 AM41 °FBroken clouds.21 mph29%29.98 "Hg10 mi
9:58 AM37 °FPartly sunny.10 mph33%30.01 "Hg10 mi
8:58 AM34 °FPartly sunny.10 mph39%30.02 "Hg10 mi
7:58 AM30 °FBroken clouds.10 mph40%30.05 "Hg10 mi
6:58 AM28 °FPartly sunny.9 mph44%30.09 "Hg10 mi
5:58 AM25 °FPassing clouds.9 mph48%30.14 "Hg10 mi
4:58 AM25 °FPassing clouds.13 mph48%30.15 "Hg10 mi
3:58 AM21 °FPassing clouds.9 mph57%30.18 "Hg10 mi
2:58 AM20 °FPassing clouds.8 mph63%30.20 "Hg10 mi
1:58 AM21 °FPassing clouds.10 mph62%30.22 "Hg10 mi
12:58 AM22 °FPassing clouds.12 mph63%30.21 "Hg10 mi
11:58 PM
Nov 24
21 °FClear.12 mph66%30.22 "Hg10 mi
10:58 PM21 °FPassing clouds.7 mph65%30.25 "Hg10 mi
9:58 PM22 °FPassing clouds.7 mph67%30.28 "Hg10 mi
8:58 PM25 °FPassing clouds.5 mph62%30.29 "Hg10 mi
Weather by CustomWeather, © 2014

See weather overviewHow to use our weather pages